This demonstration page uses our WeatherBlox Daily Observations layout. Learn more.

Left ArrowRight Arrow

Hourly Observations for March 7, 2021

Temp ( °F °C ) Dew Point ( °F °C ) Humidity (%) Winds ( mph kmh ) Pressure ( in mb ) Visibility ( mi km ) Precip ( " mm )
12:53 am 00:53 Clear 41 5 17 -8.3 38 38 Calm 30.23 1024 10 16 0.00 0.00
1:53 am 01:53 Clear 40 4.4 15 -9.4 36 36 undefined N/A 30.24 1024 10 16 0.00 0.00
2:53 am 02:53 Clear 39 3.9 14 -10 36 36 Calm 30.24 1024 10 16 0.00 0.00
3:53 am 03:53 Clear 37 2.8 15 -9.4 41 41 Calm 30.26 1025 10 16 0.00 0.00
4:53 am 04:53 Clear 37 2.8 15 -9.4 41 41 Calm 30.27 1025 10 16 0.00 0.00
5:53 am 05:53 Clear 35 1.7 18 -7.8 50 50 NNW 3 6 30.30 1026 10 16 0.00 0.00
6:53 am 06:53 Clear 35 1.7 16 -8.9 46 46 Calm 30.32 1027 10 16 0.00 0.00
7:53 am 07:53 Sunny 35 1.7 19 -7.2 52 52 Calm 30.36 1028 10 16 0.00 0.00
8:53 am 08:53 Sunny 42 5.6 18 -7.8 38 38 NNE 5 7 30.40 1029 10 16 0.00 0.00
9:53 am 09:53 Sunny 49 9.4 13 -10.6 23 23 NNE 6 9 30.40 1030 10 16 0.00 0.00
10:53 am 10:53 Sunny 51 10.6 14 -10 23 23 undefined N/A 30.41 1030 10 16 0.00 0.00
11:53 am 11:53 Sunny 54 12.2 15 -9.4 21 21 VRB 5 7 30.39 1029 10 16 0.00 0.00
12:53 pm 12:53 Sunny 58 14.4 13 -10.6 17 17 N 9 15 30.37 1028 10 16 0.00 0.00
1:53 pm 13:53 Sunny 59 15 18 -7.8 20 20 NW 6 9 30.34 1028 10 16 0.00 0.00
2:53 pm 14:53 Sunny 60 15.6 19 -7.2 20 20 NNW 9 15 30.32 1027 10 16 0.00 0.00
3:53 pm 15:53 Sunny 60 15.6 20 -6.7 21 21 NNW 13 20 30.33 1027 10 16 0.00 0.00
4:53 pm 16:53 Sunny 60 15.6 20 -6.7 21 21 NW 14 22 30.34 1027 10 16 0.00 0.00
5:53 pm 17:53 Sunny 58 14.4 19 -7.2 22 22 NNW 9 15 30.35 1028 10 16 0.00 0.00
6:53 pm 18:53 Clear 55 12.8 21 -6.1 26 26 NNW 6 9 30.38 1029 10 16 0.00 0.00
7:53 pm 19:53 Clear 52 11.1 21 -6.1 30 30 Calm 30.40 1030 10 16 0.00 0.00
8:53 pm 20:53 Clear 47 8.3 23 -5 39 39 N 3 6 30.41 1030 10 16 0.00 0.00
9:53 pm 21:53 Clear 47 8.3 25 -3.9 42 42 SSE 3 6 30.42 1030 10 16 0.00 0.00
10:53 pm 22:53 Clear 40 4.4 26 -3.3 58 58 Calm 30.43 1031 10 16 0.00 0.00
11:53 pm 23:53 Clear 39 3.9 26 -3.3 60 60 Calm 30.44 1031 10 16 0.00 0.00

Powered by AerisWeather